sat.trackr.live / text

‹ back to catalog

STARLINK-11448 [DTC]

NORAD 63005 · 2025-032A

PAYLOAD ACTIVE UNKNOWN

§ Identity

Operator
Country
US
Launch date
2025-02-15
Launch site
AFETR
Launch vehicle
Mass (kg)
RCS (m²)

Purposes: comms

External: N2YO · Heavens-Above · Gunter

§ Orbital elements

Epoch: 2026-05-25T03:41:04.869312Z

Period
91.66 min
Inclination
43.0007°
Eccentricity
0.0001774
Mean motion
15.70968367 rev/d
Perigee alt
354.9 km
Apogee alt
357.3 km
Semi-major
6,734.3 km
B*
1.2984e-3
RAAN
94.0794°
Arg perigee
247.2326°
Mean anomaly
112.8354°
Rev number
7,425

§ Raw data

STARLINK-11448 [DTC]1 63005U 25032A   26145.15352858  .00170535  00000+0  12984-2 0  99972 63005  43.0007  94.0794 0001774 247.2326 112.8354 15.70968367 74252

JSON: /api/v1/satellites/63005 · /tle

For live sub-satellite position, see the globe view (requires WebGL).

§ Visibility from observer

Set your observer location to see the next 7 days of passes ≥ 10°. The values pass through the URL so the page stays shareable.

No JS? Fill the form by hand. The geolocation button needs JavaScript.